Location: Recife
(8.0585°S, 34.8848°W)
Time: 07:10:33
(UTC-03:00)

Vanguard 1 - Pass Details

Date: 14 April 2026
Orbit: 654 x 3817 km, 34.2° (Epoch: 13 May)

Event Time Altitude Azimuth Distance (km) Brightness Sun altitude
Rises 23:16:02 0° 281° (W) 7,602 14.6 -88.1°
Reaches altitude 10° 23:24:51 10° 299° (WNW) 6,857 14.3 -87.9°
Enters shadow 23:28:26 13° 308° (NW) 6,626 14.2 -87.3°
Maximum altitude 23:37:07 16° 332° (NNW) 6,281 - -85.4°
Exits shadow 23:45:43 13° 357° (N) 6,288 14.1 -83.4°
Drops below altitude 10° 23:48:48 10° 5° (N) 6,384 14.1 -82.6°
Sets 23:56:41 0° 25° (NNE) 6,859 14.4 -80.7°
